TimeCDT,TemperatureF,Dew PointF,Humidity,Sea Level PressureIn,VisibilityMPH,Wind Direction,Wind SpeedMPH,Gust SpeedMPH,PrecipitationIn,Events,Conditions,WindDirDegrees,DateUTC
12:35 AM,60.8,59.0,94,29.68,10.0,NW,5.8,-,N/A,,Overcast,310,2012-10-02 05:35:00
12:55 AM,60.8,59.0,94,29.68,10.0,NNW,5.8,-,N/A,,Overcast,330,2012-10-02 05:55:00
1:15 AM,60.8,59.0,94,29.68,10.0,NW,5.8,-,N/A,,Overcast,320,2012-10-02 06:15:00
1:35 AM,59.0,59.0,100,29.68,10.0,NW,5.8,-,N/A,,Overcast,310,2012-10-02 06:35:00
1:55 AM,59.0,59.0,100,29.69,10.0,NW,4.6,-,N/A,,Overcast,320,2012-10-02 06:55:00
2:15 AM,59.0,59.0,100,29.69,10.0,NW,6.9,-,N/A,,Overcast,320,2012-10-02 07:15:00
3:15 AM,59.0,59.0,100,29.70,3.0,NW,6.9,-,N/A,,Light Drizzle,310,2012-10-02 08:15:00
3:35 AM,59.0,59.0,100,29.70,4.0,WNW,4.6,-,N/A,,Light Drizzle,300,2012-10-02 08:35:00
3:55 AM,59.0,59.0,100,29.70,3.0,WNW,3.5,-,N/A,,Light Drizzle,300,2012-10-02 08:55:00
4:15 AM,59.0,59.0,100,29.71,2.0,WNW,5.8,-,N/A,,Drizzle,290,2012-10-02 09:15:00
4:35 AM,57.2,57.2,100,29.71,2.5,WNW,5.8,-,N/A,,Light Drizzle,290,2012-10-02 09:35:00
4:55 AM,57.2,57.2,100,29.72,3.0,WNW,6.9,-,N/A,,Overcast,300,2012-10-02 09:55:00
5:15 AM,57.2,57.2,100,29.72,4.0,WNW,5.8,-,N/A,,Overcast,290,2012-10-02 10:15:00
5:55 AM,57.2,57.2,100,29.73,5.0,WNW,5.8,-,N/A,,Overcast,300,2012-10-02 10:55:00
6:15 AM,57.2,57.2,100,29.74,5.0,WNW,5.8,-,N/A,,Overcast,300,2012-10-02 11:15:00
6:35 AM,57.2,57.2,100,29.75,7.0,WNW,6.9,-,N/A,,Overcast,290,2012-10-02 11:35:00
6:55 AM,57.2,57.2,100,29.75,5.0,WNW,5.8,-,N/A,,Overcast,300,2012-10-02 11:55:00
7:15 AM,57.2,57.2,100,29.77,7.0,WNW,4.6,-,N/A,,Overcast,290,2012-10-02 12:15:00
7:35 AM,57.2,57.2,100,29.78,7.0,NW,6.9,-,N/A,,Overcast,310,2012-10-02 12:35:00
7:55 AM,57.2,57.2,100,29.78,5.0,WNW,5.8,-,N/A,,Overcast,300,2012-10-02 12:55:00
8:15 AM,59.0,57.2,94,29.79,7.0,NW,5.8,-,N/A,,Overcast,310,2012-10-02 13:15:00
8:55 AM,59.0,57.2,94,29.81,10.0,WNW,4.6,-,N/A,,Overcast,290,2012-10-02 13:55:00
9:15 AM,59.0,59.0,100,29.82,5.0,WNW,3.5,-,N/A,,Overcast,290,2012-10-02 14:15:00
9:35 AM,59.0,57.2,94,29.82,7.0,WNW,4.6,-,N/A,,Overcast,300,2012-10-02 14:35:00
9:55 AM,59.0,57.2,94,29.83,10.0,WNW,5.8,-,N/A,,Overcast,300,2012-10-02 14:55:00
10:15 AM,60.8,57.2,88,29.84,10.0,WNW,4.6,-,N/A,,Overcast,290,2012-10-02 15:15:00
11:15 AM,60.8,57.2,88,29.85,10.0,West,6.9,-,N/A,,Overcast,280,2012-10-02 16:15:00
11:35 AM,62.6,55.4,77,29.85,10.0,WNW,8.1,-,N/A,,Overcast,290,2012-10-02 16:35:00
11:55 AM,60.8,55.4,82,29.86,10.0,West,9.2,-,N/A,,Overcast,270,2012-10-02 16:55:00
12:15 PM,60.8,55.4,82,29.86,10.0,West,5.8,-,N/A,,Overcast,280,2012-10-02 17:15:00
12:35 PM,62.6,55.4,77,29.86,10.0,West,3.5,-,N/A,,Overcast,280,2012-10-02 17:35:00
12:55 PM,64.4,53.6,68,29.86,10.0,WNW,4.6,-,N/A,,Overcast,290,2012-10-02 17:55:00
1:15 PM,64.4,55.4,73,29.86,10.0,West,6.9,-,N/A,,Overcast,270,2012-10-02 18:15:00
1:35 PM,64.4,53.6,68,29.86,10.0,WSW,5.8,-,N/A,,Overcast,240,2012-10-02 18:35:00
1:55 PM,64.4,53.6,68,29.86,10.0,West,6.9,-,N/A,,Overcast,270,2012-10-02 18:55:00
2:15 PM,64.4,53.6,68,29.86,10.0,West,4.6,-,N/A,,Overcast,270,2012-10-02 19:15:00
2:35 PM,64.4,53.6,68,29.86,10.0,Calm,Calm,-,N/A,,Overcast,0,2012-10-02 19:35:00
2:55 PM,68.0,53.6,60,29.86,10.0,Calm,Calm,-,N/A,,Mostly Cloudy,0,2012-10-02 19:55:00
3:15 PM,66.2,53.6,64,29.86,10.0,WNW,5.8,-,N/A,,Overcast,290,2012-10-02 20:15:00
3:35 PM,69.8,53.6,56,29.87,10.0,West,5.8,-,N/A,,Mostly Cloudy,260,2012-10-02 20:35:00
3:55 PM,69.8,53.6,56,29.87,10.0,WNW,5.8,-,N/A,,Scattered Clouds,290,2012-10-02 20:55:00
4:15 PM,69.8,53.6,56,29.88,10.0,Calm,Calm,-,N/A,,Scattered Clouds,0,2012-10-02 21:15:00
4:55 PM,69.8,51.8,53,29.88,10.0,Calm,Calm,-,N/A,,Mostly Cloudy,0,2012-10-02 21:55:00
5:15 PM,69.8,51.8,53,29.89,10.0,WSW,5.8,-,N/A,,Scattered Clouds,250,2012-10-02 22:15:00
5:35 PM,69.8,51.8,53,29.89,10.0,Calm,Calm,-,N/A,,Scattered Clouds,0,2012-10-02 22:35:00
5:55 PM,69.8,51.8,53,29.90,10.0,West,3.5,-,N/A,,Scattered Clouds,260,2012-10-02 22:55:00
6:15 PM,66.2,53.6,64,29.91,10.0,WSW,3.5,-,N/A,,Clear,240,2012-10-02 23:15:00
6:35 PM,64.4,55.4,73,29.91,10.0,SW,3.5,-,N/A,,Clear,230,2012-10-02 23:35:00
6:55 PM,60.8,59.0,94,29.92,10.0,South,3.5,-,N/A,,Clear,190,2012-10-02 23:55:00
7:15 PM,59.0,59.0,100,29.93,10.0,Calm,Calm,-,N/A,,Clear,0,2012-10-03 00:15:00
7:35 PM,59.0,57.2,94,29.93,10.0,Calm,Calm,-,N/A,,Clear,0,2012-10-03 00:35:00
7:55 PM,59.0,57.2,94,29.94,10.0,Calm,Calm,-,N/A,,Scattered Clouds,0,2012-10-03 00:55:00
8:15 PM,57.2,55.4,94,29.95,10.0,Calm,Calm,-,N/A,,Clear,0,2012-10-03 01:15:00
8:35 PM,57.2,57.2,100,29.96,10.0,Calm,Calm,-,N/A,,Clear,0,2012-10-03 01:35:00
8:55 PM,55.4,55.4,100,29.97,10.0,Calm,Calm,-,N/A,,Clear,0,2012-10-03 01:55:00
9:15 PM,55.4,55.4,100,29.98,10.0,Calm,Calm,-,N/A,,Clear,0,2012-10-03 02:15:00
9:35 PM,55.4,53.6,94,29.99,10.0,Calm,Calm,-,N/A,,Clear,0,2012-10-03 02:35:00
9:55 PM,55.4,55.4,100,29.99,10.0,Calm,Calm,-,N/A,,Clear,0,2012-10-03 02:55:00
10:15 PM,55.4,53.6,94,30.00,10.0,Calm,Calm,-,N/A,,Clear,0,2012-10-03 03:15:00
10:35 PM,55.4,55.4,100,30.00,10.0,Calm,Calm,-,N/A,,Clear,0,2012-10-03 03:35:00
10:55 PM,55.4,55.4,100,30.00,10.0,Calm,Calm,-,N/A,,Clear,0,2012-10-03 03:55:00
11:15 PM,55.4,55.4,100,30.00,10.0,SSW,5.8,-,N/A,,Clear,200,2012-10-03 04:15:00
11:35 PM,57.2,55.4,94,30.01,10.0,SSW,5.8,-,N/A,,Clear,200,2012-10-03 04:35:00
11:55 PM,57.2,55.4,94,30.01,10.0,SSW,5.8,-,N/A,,Clear,210,2012-10-03 04:55:00